Temperature
2 2 2 2 2 1 1 3 4 5 4 5 5 4 3 3 2 2 2 2 2 2 2 2 2 2 2 2 2 2 2 2 2 2 1 1 1 1 1 1 1 1 1 1
1 1 1 1 1 1 1 2 3 3 3 5 4 3 2 2 2 2 2 1 1 1 1 2 2 2 1 1 1 1 1 1 1 1 1 1 1 1 1 1 0 0 0 0
3 1 0 2 2 1 1 1 2 3 4 4 3 2 2 2 1 1 1 1 1 1 1 1 1 1 1 1 1 1 1 1 0 0 0 0 0 0 0 0 -0 -0 -0 -0
2 1 2 4 1 1 1 1 1 2 2 2 2 1 1 1 1 1 1 1 1 1 1 1 1 1 0 0 0 0 0 0 0 -0 -0 -0 -0 -0 -0 -0 -0 -0 -1 -1
1 2 3 3 1 0 0 1 1 1 1 1 -0 -0 1 1 1 0 0 0 0 0 1 0 0 0 0 0 0 0 -0 -0 -0 -0 -1 -1 -1 -1 -1 -1 -1 -1 -1 -1
0 2 3 4 1 -1 1 2 1 0 0 -0 -1 2 2 0 -0 -0 -0 -0 0 0 0 0 0 -0 -0 -0 -0 -0 -0 -1 -1 -1 -1 -1 -1 -1 -1 -1 -1 -1 -1 -2
0 1 3 2 -1 -1 2 3 1 -0 -1 -1 -0 1 0 -0 -0 -0 -0 -0 -0 -0 -0 -0 -0 -0 -1 -1 -1 -1 -1 -1 -1 -1 -1 -1 -1 -1 -2 -2 -2 -2 -2 -2
-0 1 2 -0 -1 1 2 0 -0 -1 -1 -1 -1 -1 -1 -1 -1 -1 -1 -1 -1 -1 -1 -1 -1 -1 -1 -1 -1 -1 -1 -2 -2 -2 -2 -2 -2 -2 -2 -2 -2 -3 -3 -3
1 2 1 -1 -0 -0 -0 -0 -1 -1 -1 -1 -2 -1 -1 -1 -1 -1 -1 -1 -1 -1 -1 -1 -1 -2 -2 -2 -2 -2 -2 -2 -2 -2 -2 -2 -2 -2 -2 -2 -3 -3 -3 -3
-2 -0 -1 -1 -1 -1 -1 -1 -1 -1 -1 -1 -2 -2 -2 -2 -1 -1 -1 -2 -2 -2 -2 -2 -2 -2 -2 -2 -2 -2 -2 -2 -3 -3 -3 -3 -3 -3 -3 -3 -3 -3 -4 -4
-2 -1 -1 -1 -1 -1 -1 -1 -1 -1 -1 -2 -2 -2 -2 -2 -2 -2 -2 -2 -2 -2 -2 -2 -2 -2 -2 -2 -3 -3 -3 -3 -3 -3 -3 -3 -3 -3 -3 -3 -4 -4 -4 -4
0 -0 -1 -1 -1 -1 -1 -1 -2 -2 -2 -2 -2 -2 -2 -2 -2 -2 -2 -2 -2 -2 -2 -2 -3 -3 -3 -3 -3 -3 -3 -3 -3 -3 -3 -3 -4 -4 -4 -4 -4 -4 -4 -4
-2 -2 -2 -2 -2 -2 -2 -2 -2 -2 -2 -2 -2 -3 -3 -3 -3 -3 -3 -3 -3 -3 -3 -3 -3 -3 -3 -3 -3 -3 -3 -3 -4 -4 -4 -4 -4 -4 -4 -4 -4 -4 -4 -4
-2 -3 -3 -2 -2 -2 -2 -2 -2 -2 -3 -3 -3 -3 -3 -3 -3 -3 -3 -3 -3 -3 -3 -3 -3 -3 -3 -3 -3 -3 -3 -4 -4 -4 -4 -4 -4 -4 -4 -4 -4 -4 -4 -5
-3 -3 -3 -3 -3 -3 -3 -3 -3 -3 -3 -3 -3 -3 -3 -3 -3 -3 -3 -3 -3 -3 -3 -3 -3 -3 -3 -3 -3 -4 -4 -4 -4 -4 -4 -4 -4 -5 -5 -5 -5 -5 -5 -5
-3 -3 -3 -3 -3 -3 -3 -3 -3 -3 -3 -3 -3 -3 -4 -4 -4 -4 -4 -4 -3 -3 -3 -3 -3 -3 -4 -4 -4 -4 -4 -4 -4 -4 -4 -5 -5 -5 -5 -5 -5 -5 -5 -5
-4 -4 -4 -4 -3 -3 -3 -3 -3 -4 -4 -4 -4 -4 -4 -4 -4 -4 -4 -4 -4 -4 -4 -4 -4 -4 -4 -4 -4 -4 -4 -4 -4 -5 -5 -5 -5 -5 -5 -5 -5 -5 -5 -5
-4 -4 -4 -4 -4 -4 -4 -4 -4 -4 -4 -4 -4 -4 -4 -4 -4 -4 -4 -4 -4 -4 -4 -4 -4 -4 -4 -4 -4 -4 -5 -5 -5 -5 -5 -5 -5 -5 -5 -5 -5 -5 -5 -5
-4 -4 -4 -4 -4 -4 -4 -4 -4 -4 -4 -4 -5 -5 -5 -5 -5 -5 -5 -5 -5 -4 -4 -4 -5 -5 -5 -5 -5 -5 -5 -5 -5 -5 -5 -5 -5 -5 -5 -5 -5 -6 -6 -6
-4 -4 -4 -4 -4 -4 -4 -4 -4 -4 -4 -5 -5 -5 -5 -5 -5 -5 -5 -5 -5 -5 -5 -5 -5 -5 -5 -5 -5 -5 -5 -5 -6 -6 -5 -5 -5 -5 -5 -6 -6 -6 -6 -5
-4 -4 -4 -4 -4 -4 -4 -4 -5 -5 -5 -5 -5 -5 -5 -5 -5 -5 -5 -5 -5 -5 -5 -5 -5 -5 -5 -5 -5 -6 -6 -6 -6 -6 -6 -6 -6 -5 -5 -6 -6 -6 -6 -5
-4 -4 -4 -5 -5 -5 -5 -5 -5 -5 -5 -5 -5 -5 -5 -5 -5 -5 -5 -5 -5 -5 -5 -5 -5 -5 -5 -5 -6 -6 -6 -6 -6 -6 -6 -6 -6 -6 -6 -6 -6 -6 -6 -5
-5 -5 -5 -5 -5 -5 -5 -5 -5 -5 -5 -5 -5 -5 -5 -5 -6 -6 -5 -5 -5 -5 -6 -5 -6 -6 -5 -6 -6 -6 -6 -6 -6 -6 -6 -6 -6 -6 -6 -6 -6 -6 -6 -6
-5 -5 -5 -5 -5 -5 -5 -5 -6 -6 -6 -6 -6 -6 -6 -6 -6 -6 -6 -6 -6 -6 -6 -6 -6 -6 -6 -6 -6 -6 -6 -6 -6 -6 -6 -6 -6 -6 -6 -6 -6 -6 -6 -6
-5 -5 -6 -6 -6 -6 -6 -6 -6 -6 -6 -6 -6 -6 -6 -6 -6 -6 -6 -6 -6 -6 -6 -6 -6 -6 -6 -6 -6 -6 -6 -6 -6 -6 -6 -6 -6 -6 -6 -6 -6 -6 -6 -6
-6 -6 -6 -6 -6 -6 -6 -6 -6 -6 -6 -6 -6 -6 -6 -6 -6 -6 -6 -6 -6 -6 -6 -6 -6 -6 -6 -6 -6 -6 -6 -6 -7 -7 -7 -6 -6 -7 -6 -6 -6 -6 -6 -6
-6 -6 -6 -6 -6 -6 -6 -6 -6 -6 -6 -6 -6 -6 -6 -6 -6 -6 -6 -6 -6 -6 -6 -6 -6 -6 -6 -7 -7 -7 -6 -7 -7 -7 -7 -6 -6 -6 -6 -6 -6 -6 -6 -6
Wind_Speed
8 7 5 8 9 11 13 13 11 12 12 13 10 8 8 7 6 6 6 6 6 5 4 4 3 3 3 3 3 2 3 4 4 4 3 3 3 3 3 3 4 4 4 4
6 6 6 9 12 12 13 13 15 15 15 11 8 7 7 7 6 7 7 7 6 5 5 4 4 3 3 3 3 3 3 3 3 3 3 3 3 3 3 3 3 3 4 4
5 3 5 9 10 11 9 10 10 14 12 7 7 7 7 7 7 7 7 7 6 6 5 4 4 4 4 4 3 3 3 3 3 3 3 4 3 3 4 4 3 4 4 4
3 2 8 4 1 6 9 9 10 10 9 8 8 8 8 7 7 7 6 6 6 5 5 4 4 4 4 4 4 4 4 4 4 4 4 4 4 4 4 4 4 4 4 4
3 6 9 6 3 4 6 8 8 9 9 8 6 6 6 4 4 6 6 6 6 5 5 5 4 4 4 4 3 4 4 4 4 4 4 4 4 4 4 4 4 4 4 4
4 5 7 4 1 1 2 6 3 4 7 6 4 5 5 3 5 6 6 6 6 5 5 4 4 3 4 4 4 4 4 5 4 4 5 5 5 4 4 4 4 3 4 4
8 7 8 2 2 3 4 3 2 4 6 5 6 6 6 5 6 6 6 6 5 5 4 4 4 3 4 4 5 4 4 4 4 4 5 5 4 4 3 3 3 3 4 4
6 7 8 3 4 5 4 4 4 5 6 7 8 7 7 7 6 6 5 5 5 4 4 4 3 3 4 5 4 4 3 3 4 4 4 3 4 3 3 3 3 3 3 4
7 7 4 4 6 5 5 6 6 6 6 6 7 7 7 6 6 6 5 5 4 4 4 4 3 4 5 5 3 3 3 3 3 3 3 3 4 4 3 3 3 3 3 3
6 9 8 8 8 8 7 8 8 7 6 6 6 7 7 6 6 5 5 5 4 4 4 5 4 4 4 4 3 3 3 3 3 3 3 3 3 4 4 4 4 4 4 4
8 9 8 8 7 8 8 7 7 6 5 5 6 6 6 6 6 6 5 5 4 4 5 5 4 4 4 3 3 3 3 3 3 3 3 3 4 4 4 5 5 5 5 5
8 7 7 8 7 6 6 7 6 6 5 5 5 6 6 6 6 6 5 5 4 5 5 5 4 4 4 3 3 3 3 3 3 3 3 3 3 3 4 5 6 7 7 6
8 7 8 9 7 6 6 7 6 6 5 6 5 5 5 5 5 5 5 5 5 5 5 5 5 5 4 3 3 4 4 4 3 3 3 3 3 3 3 3 4 6 7 7
8 6 7 7 7 6 6 5 5 4 4 4 5 4 4 4 5 5 5 4 4 4 5 5 5 5 4 3 3 4 4 4 4 3 3 3 4 4 3 3 3 3 4 6
8 8 8 7 6 5 4 3 4 4 4 4 4 4 4 4 5 5 4 3 3 4 4 4 5 5 4 3 4 4 4 3 3 3 3 4 4 3 3 4 4 4 3 4
7 6 6 6 7 6 4 4 4 5 4 4 4 4 4 4 4 4 4 3 3 4 4 4 5 5 3 3 3 3 4 4 4 3 3 3 3 3 3 4 4 4 4 3
5 5 5 6 6 6 6 5 5 5 5 5 5 5 4 3 4 4 4 3 4 5 5 5 5 4 3 3 3 3 3 3 4 3 3 3 3 4 4 4 4 4 4 4
7 7 7 6 6 5 5 5 4 5 5 5 4 3 3 3 4 5 5 4 4 5 5 4 4 3 3 3 3 3 3 3 3 3 3 3 3 3 3 4 4 4 4 4
4 5 4 4 4 4 4 4 4 4 4 3 3 3 4 4 4 4 4 4 4 5 5 4 4 3 3 3 3 3 3 3 3 3 3 4 3 3 3 3 3 3 3 3
3 2 2 2 2 3 3 3 3 3 3 3 3 3 4 4 4 4 4 4 4 4 5 4 4 3 3 3 3 3 3 3 3 3 3 3 3 3 3 3 3 3 3 3
3 2 2 2 2 2 3 3 3 3 3 3 3 4 4 4 4 3 3 4 4 4 4 5 4 3 3 3 3 3 3 3 3 3 3 3 3 3 3 3 3 3 3 3
3 2 2 2 2 3 3 2 3 3 3 3 3 3 4 4 4 3 4 4 4 5 4 3 3 4 4 3 2 2 2 3 3 3 3 3 3 3 3 3 3 3 3 3
3 3 3 2 3 3 3 3 3 3 3 4 4 4 4 4 3 3 4 3 3 5 4 3 4 6 5 2 2 2 3 3 3 3 3 3 3 3 3 3 3 3 3 3
2 2 2 2 2 2 3 3 3 3 3 4 4 4 4 3 3 3 3 5 5 6 4 5 6 6 4 2 2 2 3 3 3 3 3 3 3 3 3 3 3 3 3 3
2 2 1 1 2 2 3 3 2 2 2 2 3 3 3 3 3 3 3 4 5 5 4 4 5 5 3 2 2 2 2 3 3 3 3 3 3 3 3 3 3 3 3 3
2 2 2 3 2 2 2 2 2 2 2 2 3 2 2 2 3 3 2 3 3 4 3 3 3 3 2 2 2 2 2 2 3 3 3 3 3 3 3 3 3 3 3 3
1 1 1 2 2 2 2 2 2 2 2 2 3 3 2 2 2 2 2 2 2 3 3 3 3 2 2 2 2 2 2 2 2 2 2 3 3 3 3 3 3 3 3 3
Wind_Direction
267 276 262 254 242 224 225 236 249 263 264 271 280 286 289 289 290 289 287 284 282 279 277 278 278 273 273 268 258 245 233 227 232 236 236 235 236 236 232 228 228 229 231 233
265 263 265 267 255 237 237 242 249 264 271 273 281 282 284 283 282 282 284 283 284 283 279 279 281 278 277 270 259 244 237 233 232 232 231 233 235 239 235 236 237 234 233 234
261 271 280 263 242 223 230 231 235 249 264 282 284 287 289 290 281 276 283 285 283 277 273 272 273 273 270 268 256 240 241 238 231 227 231 232 229 230 232 237 238 238 239 238
264 258 248 265 271 221 233 247 240 256 273 278 280 292 287 279 276 278 284 288 286 284 281 280 277 277 271 264 247 237 240 239 235 230 232 233 228 229 235 237 237 241 244 244
232 255 271 273 233 202 226 263 240 246 270 284 294 294 283 278 273 282 291 291 288 286 282 277 271 271 265 263 258 244 242 242 240 236 237 238 235 237 238 238 240 242 246 246
225 249 261 280 209 204 217 267 214 242 273 286 286 280 290 310 303 296 297 295 291 289 280 271 270 265 256 262 261 259 256 249 244 237 235 237 238 240 240 235 240 245 247 249
233 249 267 280 144 164 232 288 316 268 265 263 260 272 291 296 297 293 294 293 290 282 271 270 270 253 252 259 263 270 273 260 248 240 237 238 239 238 235 235 240 247 252 252
210 232 255 171 168 214 276 314 291 278 270 264 271 281 283 285 288 291 295 294 289 282 278 278 263 245 252 260 270 277 273 263 246 241 238 233 233 232 230 227 235 244 251 259
215 237 294 214 243 272 291 287 289 284 282 271 271 275 280 281 284 285 285 285 281 275 280 283 264 247 252 267 275 271 264 260 252 243 234 227 226 227 227 225 229 240 248 257
255 264 269 267 269 273 274 278 283 282 278 265 262 269 276 281 281 282 280 279 274 271 276 283 278 265 261 271 272 261 258 259 254 242 241 237 231 226 226 227 229 235 244 253
260 276 287 270 264 275 280 280 280 281 275 263 259 267 272 277 280 282 281 277 268 263 268 275 279 275 273 268 260 257 256 253 251 245 239 240 238 235 233 234 234 237 242 246
255 265 263 278 285 286 276 275 275 276 279 272 262 265 272 275 277 277 273 270 267 265 265 270 273 273 275 268 253 247 252 249 245 244 241 242 244 256 251 252 258 257 257 256
265 278 275 282 283 282 276 278 279 272 270 277 278 269 267 272 275 275 271 264 262 263 265 270 272 273 272 267 252 241 246 249 245 240 240 240 241 246 264 267 258 258 259 260
263 274 273 273 275 281 280 284 286 285 282 279 281 279 271 273 278 277 274 271 268 266 267 269 269 272 275 264 250 244 244 245 242 240 239 240 242 244 248 258 267 271 258 258
263 262 262 271 277 283 281 280 283 288 292 291 287 281 278 278 280 284 286 284 275 269 271 272 271 277 283 263 247 245 245 247 243 243 242 243 242 242 245 250 257 267 274 268
279 273 260 256 258 265 268 267 266 274 280 287 290 289 286 283 285 290 294 291 284 284 284 280 276 280 281 264 255 248 245 252 255 247 242 241 242 243 246 249 253 259 263 271
260 266 261 257 256 261 263 260 259 264 272 276 281 288 295 298 298 298 302 300 287 281 281 278 276 280 272 259 254 255 256 253 253 249 244 242 242 243 246 248 252 259 263 266
249 255 254 250 251 256 264 266 262 264 267 272 279 280 282 286 290 298 305 308 302 294 292 286 282 282 274 263 254 253 251 251 248 245 244 246 247 247 248 250 253 259 268 265
265 258 257 251 247 247 256 261 264 268 272 266 262 267 272 276 284 292 300 301 301 302 306 304 298 288 279 268 261 248 245 247 250 251 246 248 250 250 251 252 256 261 264 263
278 275 270 272 262 250 253 261 265 267 265 256 259 270 279 283 286 289 291 286 285 290 299 301 296 286 275 266 261 248 244 246 248 250 248 245 247 251 252 255 258 260 259 259
282 275 268 267 278 278 269 264 255 259 265 252 249 262 274 285 285 281 285 294 304 305 303 300 295 289 280 272 257 245 242 244 248 252 251 249 249 251 253 256 258 258 260 264
280 270 268 269 273 283 284 271 256 257 264 265 265 267 274 284 287 279 264 272 297 310 310 300 294 293 294 276 247 242 241 244 250 253 252 250 248 252 256 256 257 261 264 266
271 269 266 268 271 282 290 280 263 257 259 263 264 264 268 276 280 278 288 292 298 306 307 297 298 300 301 280 255 247 244 245 250 252 253 253 252 253 256 258 259 262 264 266
268 270 276 282 277 272 281 287 283 276 270 272 270 262 262 275 280 267 272 297 307 306 303 302 304 302 300 283 264 255 251 250 251 254 255 254 254 255 256 259 261 263 262 263
263 265 269 267 262 269 280 289 291 287 287 289 290 282 265 260 268 285 292 297 308 311 308 313 318 315 304 280 268 262 258 254 256 261 258 256 258 259 260 261 259 260 260 260
264 265 266 267 269 275 281 278 274 280 284 293 299 297 293 287 282 286 292 300 304 311 312 308 309 309 298 288 279 272 264 264 264 259 255 255 257 257 260 263 267 264 263 263
287 289 291 294 289 280 280 278 277 280 278 278 288 295 301 304 301 302 303 307 312 314 313 313 313 306 301 295 288 281 274 267 263 262 262 260 260 260 262 264 267 268 269 266
Height
1504 1504 1504 1502 1502 1505 1504 1495 1491 1482 1483 1478 1480 1481 1481 1481 1480 1479 1478 1477 1476 1475 1475 1474 1474 1474 1473 1473 1473 1473 1473 1473 1473 1474 1474 1473 1474 1474 1474 1474 1474 1474 1474 1475
1504 1504 1504 1502 1497 1497 1497 1494 1490 1487 1483 1478 1480 1480 1479 1479 1478 1477 1475 1474 1474 1473 1472 1471 1471 1471 1470 1470 1470 1470 1470 1470 1470 1470 1470 1470 1470 1471 1471 1471 1471 1471 1470 1471
1494 1502 1501 1490 1486 1490 1489 1487 1486 1481 1476 1477 1478 1478 1477 1476 1475 1474 1473 1472 1471 1470 1469 1469 1468 1468 1467 1467 1467 1466 1467 1467 1467 1467 1467 1467 1467 1467 1467 1467 1467 1467 1467 1467
1497 1500 1491 1477 1483 1483 1484 1482 1482 1479 1477 1477 1477 1476 1475 1474 1473 1471 1470 1469 1468 1467 1466 1466 1465 1465 1464 1464 1463 1463 1463 1463 1463 1463 1463 1463 1463 1464 1464 1463 1463 1463 1463 1463
1497 1488 1478 1477 1481 1482 1482 1477 1476 1476 1476 1476 1475 1474 1471 1470 1470 1469 1468 1467 1465 1464 1464 1463 1462 1462 1461 1460 1460 1460 1460 1460 1460 1460 1460 1460 1460 1460 1460 1459 1459 1459 1459 1459
1496 1488 1478 1472 1479 1480 1481 1474 1472 1473 1473 1473 1473 1470 1467 1468 1467 1466 1465 1463 1462 1461 1461 1460 1459 1459 1458 1457 1456 1456 1456 1456 1456 1456 1456 1456 1456 1456 1456 1455 1455 1455 1455 1455
1492 1487 1475 1475 1478 1480 1477 1470 1471 1471 1471 1471 1470 1468 1467 1465 1464 1463 1461 1460 1460 1459 1458 1457 1456 1455 1454 1453 1453 1453 1452 1452 1452 1452 1452 1452 1452 1452 1452 1451 1451 1451 1451 1451
1489 1486 1476 1476 1477 1476 1471 1470 1469 1468 1468 1467 1466 1464 1463 1462 1460 1459 1458 1457 1456 1455 1454 1454 1453 1452 1451 1450 1450 1450 1449 1449 1449 1449 1449 1448 1448 1448 1448 1448 1447 1447 1447 1447
1480 1475 1473 1473 1472 1471 1470 1468 1467 1466 1465 1464 1463 1461 1460 1459 1458 1456 1455 1454 1453 1452 1451 1450 1450 1449 1448 1447 1447 1446 1446 1446 1445 1445 1445 1445 1445 1444 1444 1444 1444 1444 1444 1443
1479 1472 1471 1470 1469 1467 1467 1466 1464 1463 1462 1461 1460 1458 1457 1456 1454 1453 1452 1451 1450 1449 1448 1447 1447 1446 1445 1444 1443 1443 1443 1442 1442 1442 1441 1441 1441 1441 1441 1440 1440 1440 1440 1440
1475 1470 1468 1465 1465 1464 1463 1462 1461 1460 1459 1458 1456 1455 1454 1452 1451 1450 1449 1448 1447 1446 1445 1444 1443 1443 1442 1441 1440 1440 1440 1439 1439 1439 1438 1438 1438 1437 1437 1437 1437 1437 1437 1436
1466 1465 1465 1462 1462 1461 1460 1459 1458 1457 1455 1454 1454 1452 1451 1450 1449 1447 1446 1445 1444 1443 1442 1441 1440 1439 1439 1438 1437 1437 1437 1436 1436 1435 1435 1435 1434 1434 1433 1434 1433 1433 1433 1433
1463 1461 1461 1459 1458 1458 1457 1456 1455 1454 1452 1451 1450 1449 1448 1447 1445 1444 1443 1442 1441 1440 1439 1438 1437 1436 1436 1435 1434 1434 1434 1433 1433 1432 1432 1431 1431 1430 1430 1430 1430 1429 1429 1429
1459 1459 1457 1456 1455 1454 1454 1453 1452 1450 1449 1448 1447 1446 1445 1444 1442 1441 1440 1439 1438 1437 1436 1435 1434 1433 1433 1432 1431 1431 1431 1430 1430 1429 1429 1428 1428 1427 1427 1426 1425 1425 1425 1425
1455 1455 1453 1452 1452 1451 1450 1450 1448 1447 1446 1445 1444 1443 1442 1440 1439 1438 1437 1436 1435 1434 1433 1432 1431 1431 1430 1429 1429 1428 1428 1427 1427 1426 1426 1425 1425 1424 1424 1423 1423 1422 1422 1422
1451 1450 1449 1448 1447 1447 1447 1446 1445 1444 1444 1443 1442 1441 1439 1438 1437 1435 1434 1433 1432 1431 1430 1429 1428 1428 1427 1426 1426 1425 1425 1424 1424 1423 1423 1422 1422 1421 1421 1420 1420 1419 1418 1418
1447 1445 1445 1444 1443 1443 1443 1443 1442 1442 1441 1440 1439 1438 1437 1435 1434 1432 1431 1430 1429 1428 1427 1426 1425 1425 1424 1423 1423 1422 1422 1421 1421 1420 1420 1419 1419 1418 1418 1417 1417 1416 1416 1415
1443 1442 1442 1441 1440 1440 1440 1440 1439 1438 1438 1437 1436 1435 1434 1432 1431 1430 1429 1427 1426 1425 1424 1423 1422 1422 1421 1421 1420 1419 1419 1418 1418 1417 1417 1416 1416 1415 1415 1414 1414 1413 1413 1413
1439 1439 1438 1438 1438 1437 1437 1436 1436 1435 1435 1434 1433 1432 1431 1430 1429 1428 1426 1425 1424 1423 1422 1421 1420 1419 1418 1418 1417 1417 1416 1415 1415 1414 1414 1414 1413 1413 1412 1412 1411 1411 1410 1410
1437 1436 1436 1435 1435 1435 1434 1434 1433 1433 1432 1431 1430 1430 1429 1428 1427 1426 1424 1423 1422 1420 1419 1418 1417 1416 1416 1415 1415 1414 1414 1413 1412 1412 1411 1411 1410 1410 1410 1409 1409 1408 1408 1408
1434 1434 1433 1433 1433 1432 1432 1431 1431 1430 1430 1429 1428 1427 1426 1426 1425 1423 1422 1421 1420 1419 1417 1416 1415 1414 1413 1412 1412 1412 1411 1411 1410 1410 1409 1408 1408 1408 1407 1407 1406 1406 1406 1405
1432 1432 1432 1431 1431 1430 1430 1429 1428 1428 1427 1427 1426 1425 1424 1423 1422 1421 1420 1419 1417 1416 1415 1414 1413 1412 1411 1410 1409 1409 1408 1408 1407 1407 1406 1406 1406 1405 1405 1404 1404 1404 1403 1403
1431 1430 1430 1429 1429 1428 1427 1427 1426 1426 1425 1424 1424 1423 1422 1421 1420 1419 1418 1417 1415 1414 1413 1412 1410 1410 1409 1408 1407 1406 1406 1405 1405 1404 1404 1404 1403 1403 1402 1402 1402 1402 1401 1401
1429 1428 1428 1427 1427 1426 1425 1424 1424 1423 1423 1422 1421 1420 1419 1418 1418 1417 1416 1414 1413 1412 1410 1409 1408 1407 1406 1405 1404 1404 1403 1403 1402 1402 1401 1401 1401 1400 1400 1400 1400 1399 1399 1399
1427 1426 1426 1425 1425 1424 1423 1422 1422 1421 1420 1420 1419 1418 1417 1416 1415 1414 1413 1412 1411 1409 1408 1407 1405 1404 1403 1402 1402 1401 1401 1400 1400 1399 1399 1398 1398 1398 1398 1397 1397 1397 1397 1396
1425 1425 1424 1424 1423 1423 1422 1421 1420 1419 1419 1418 1417 1416 1415 1414 1413 1412 1411 1409 1408 1407 1405 1404 1403 1402 1401 1400 1399 1399 1398 1398 1397 1397 1396 1396 1396 1395 1395 1395 1395 1395 1394 1394
1424 1423 1423 1422 1422 1421 1420 1419 1418 1417 1417 1416 1415 1414 1413 1412 1411 1410 1408 1407 1406 1405 1403 1402 1401 1400 1399 1398 1397 1397 1396 1395 1395 1395 1394 1394 1394 1393 1393 1393 1392 1392 1392 1392